This is the latest recevied weather packets stored in our database for station/object LU3HGB-WX. If no packets are shown the sender has not sent any weather packets the latest 10 day(s).
| Time | Temp. | Humidity | Pressure | Rain* | Wind** | Luminosity | Snow |
|---|---|---|---|---|---|---|---|
| 1788128261 | 17.22° C | 43% | 1011 hPa | 0 mm | - | 1 W/m² | - |
| 1788127959 | 18.33° C | 40% | 1011 hPa | 0 mm | - | 2 W/m² | - |
| 1788127659 | 18.89° C | 36% | 1011 hPa | 0 mm | - | 3 W/m² | - |
| 1788127360 | 19.44° C | 35% | 1011 hPa | 0 mm | - | 7 W/m² | - |
| 1788127059 | 19.44° C | 34% | 1011 hPa | 0 mm | - | 12 W/m² | - |
| 1788126760 | 20° C | 33% | 1011 hPa | 0 mm | - | 18 W/m² | - |
| 1788126459 | 20.56° C | 33% | 1011 hPa | 0 mm | - | 24 W/m² | - |
| 1788126159 | 20.56° C | 32% | 1011 hPa | 0 mm | - | 29 W/m² | - |
| 1788125859 | 20.56° C | 32% | 1011 hPa | 0 mm | - | 38 W/m² | - |
| 1788125559 | 20.56° C | 32% | 1011 hPa | 0 mm | - | 45 W/m² | - |
| 1788125259 | 20.56° C | 33% | 1011 hPa | 0 mm | - | 50 W/m² | - |
| 1788124959 | 21.11° C | 32% | 1011 hPa | 0 mm | - | 44 W/m² | - |
| 1788124659 | 21.11° C | 32% | 1011 hPa | 0 mm | - | 46 W/m² | - |
| 1788124359 | 21.67° C | 31% | 1011 hPa | 0 mm | - | 51 W/m² | - |
| 1788124059 | 21.67° C | 31% | 1011 hPa | 0 mm | - | 60 W/m² | - |
| 1788123759 | 22.22° C | 30% | 1010 hPa | 0 mm | - | 85 W/m² | - |
| 1788123460 | 22.22° C | 29% | 1010 hPa | 0 mm | - | 85 W/m² | - |
| 1788123159 | 22.78° C | 28% | 1010 hPa | 0 mm | - | 230 W/m² | - |
| 1788122859 | 22.78° C | 28% | 1010 hPa | 0 mm | - | 274 W/m² | - |
| 1788122563 | 22.78° C | 27% | 1010 hPa | 0 mm | - | 291 W/m² | - |
| 1788122259 | 23.33° C | 27% | 1010 hPa | 0 mm | - | 310 W/m² | - |
| 1788121960 | 23.33° C | 27% | 1010 hPa | 0 mm | - | 364 W/m² | - |
| 1788121669 | 23.33° C | 27% | 1010 hPa | 0 mm | - | 372 W/m² | - |
| 1788121359 | 23.33° C | 28% | 1010 hPa | 0 mm | - | 375 W/m² | - |
| 1788121060 | 23.33° C | 27% | 1010 hPa | 0 mm | - | 413 W/m² | - |
* Rain latest hour (hover to see other rain measurements)
** Current wind speed in m/s (hover to see current wind gust speed)